Weather History for Rome, GA

Change the Weather History Date:

Saturday, October 27, 2012

  Actual Average Record
Temperature  
Mean Temperature 56 °F 57 °F  
Max Temperature 62 °F 70 °F 87 °F (2004)
Min Temperature 53 °F 44 °F 33 °F (2005)
Degree Days  
Heating Degree Days 9 8  
Month to date heating degree days 126  
Since 1 July heating degree days 140  
Cooling Degree Days 0 1  
Month to date cooling degree days 43  
Year to date cooling degree days 1633  
Growing Degree Days 6 (Base 50)    
Moisture  
Dew Point 51 °F    
Average Humidity 81    
Maximum Humidity 100    
Minimum Humidity 67    
Precipitation  
Precipitation 0.00 in 0.13 in 1.93 in (2006)
Month to date precipitation 3.38  
Snow  
Snow 0.00 in - - ()
Month to date snowfall  
Since 1 July snowfall  
Since 1 September snowfall  
Snow Depth -    
Sea Level Pressure  
Sea Level Pressure 29.90 in    
Wind  
Wind Speed 6 mph (NNW)    
Max Wind Speed 15 mph    
Max Gust Speed 23 mph    
Visibility 10 miles    
Events      
T = Trace of Precipitation, MM = Missing Value Source: NWS Daily Summary

Daily Weather History Graph

Daily Weather History Graph

Search for Another Location

Airport:

Trip Planner

Search our weather history database for the weather conditions in past years. The results will help you decide how hot, cold, wet, or windy it might be!

Date:

Astronomy

Oct. 27, 2012 Rise Set
Actual Time 7:56 AM EDT 6:51 PM EDT
Civil Twilight 7:30 AM EDT 7:17 PM EDT
Nautical Twilight 7:01 AM EDT 7:47 PM EDT
Astronomical Twilight 6:32 AM EDT 8:16 PM EDT
Moon 5:34 PM EDT (10/27) 5:54 AM EDT (10/27)
Length of Visible Light 11h 46m
Length of Day
10h 55m
Waxing Gibbous, 96% of the Moon is Illuminated
Oct 27
Waxing Gibbous
Oct 29
Full
Nov 6
Last Quarter
Nov 13
New
Nov 20
First Quarter

Hourly Weather History & Observations

Time (EDT) Temp. Dew Point Humidity Pressure Visibility Wind Dir Wind Speed Gust Speed Precip Events Conditions
12:53 AM 57.9 °F 57.0 °F 97% 29.91 in 10.0 mi Calm Calm - N/A   Partly Cloudy
1:53 AM 57.0 °F 55.9 °F 96% 29.89 in 10.0 mi Calm Calm - N/A   Scattered Clouds
2:53 AM 57.0 °F 57.0 °F 100% 29.89 in 9.0 mi Calm Calm - N/A   Overcast
3:53 AM 57.9 °F 57.0 °F 97% 29.88 in 10.0 mi Calm Calm - N/A   Partly Cloudy
4:53 AM 59.0 °F 55.9 °F 90% 29.88 in 10.0 mi NNW 5.8 mph - N/A   Clear
5:53 AM 59.0 °F 54.0 °F 83% 29.88 in 10.0 mi NNW 10.4 mph - N/A   Mostly Cloudy
6:25 AM 57.2 °F 53.6 °F 88% 29.91 in 10.0 mi NNW 9.2 mph - N/A   Scattered Clouds
6:53 AM 55.9 °F 53.1 °F 90% 29.90 in 10.0 mi NNW 6.9 mph - N/A   Partly Cloudy
7:53 AM 55.0 °F 52.0 °F 89% 29.92 in 10.0 mi NNW 5.8 mph - N/A   Scattered Clouds
8:43 AM 55.4 °F 51.8 °F 88% 29.95 in 10.0 mi North 9.2 mph - N/A   Overcast
8:53 AM 55.9 °F 51.1 °F 84% 29.94 in 10.0 mi NNW 8.1 mph - N/A   Overcast
9:53 AM 57.0 °F 50.0 °F 77% 29.95 in 10.0 mi North 9.2 mph - N/A   Overcast
10:53 AM 55.9 °F 50.0 °F 80% 29.95 in 10.0 mi NNW 6.9 mph - N/A   Overcast
11:53 AM 55.9 °F 48.9 °F 77% 29.94 in 10.0 mi North 8.1 mph - N/A   Overcast
12:53 PM 57.0 °F 48.9 °F 74% 29.92 in 10.0 mi North 10.4 mph - N/A   Overcast
1:53 PM 57.9 °F 48.9 °F 72% 29.89 in 10.0 mi NW 12.7 mph - N/A   Overcast
2:53 PM 57.9 °F 48.0 °F 70% 29.87 in 10.0 mi NW 11.5 mph - N/A   Overcast
3:53 PM 57.0 °F 48.0 °F 72% 29.86 in 10.0 mi North 10.4 mph - N/A   Overcast
4:53 PM 57.9 °F 48.0 °F 70% 29.86 in 10.0 mi North 12.7 mph 18.4 mph N/A   Overcast
5:53 PM 57.9 °F 46.9 °F 67% 29.86 in 10.0 mi North 15.0 mph - N/A   Overcast
6:24 PM 57.2 °F 46.4 °F 67% 29.88 in 10.0 mi North 10.4 mph 19.6 mph N/A   Overcast
6:53 PM 57.0 °F 46.9 °F 69% 29.87 in 10.0 mi North 13.8 mph 21.9 mph N/A   Overcast
7:53 PM 55.9 °F 46.9 °F 72% 29.87 in 10.0 mi North 6.9 mph - N/A   Overcast
8:53 PM 54.0 °F 46.0 °F 75% 29.87 in 10.0 mi North 11.5 mph - N/A   Overcast
9:53 PM 54.0 °F 46.0 °F 75% 29.88 in 10.0 mi North 10.4 mph - N/A   Overcast
10:53 PM 53.1 °F 46.0 °F 77% 29.89 in 10.0 mi NNW 11.5 mph 23.0 mph N/A   Overcast
11:53 PM 53.1 °F 45.0 °F 74% 29.89 in 10.0 mi North 13.8 mph - N/A   Overcast